Tracking 18987 objects as of 25-Feb-2018
HD Live streaming from Space Station
objects crossing your sky now

COSMOS 2409

Track COSMOS 2409 now!
10-day predictions
COSMOS 2409 is classified as:


NORAD ID: 28420
Int'l Code: 2004-037B
Perigee: 1,479.7 km
Apogee: 1,503.2 km
Inclination: 82.5 °
Period: 115.6 minutes
Semi major axis: 7862 km
RCS: 1.0044 m2 (large)
Launch date: September 23, 2004
Source: Commonwealth of Independent States (former USSR) (CIS)
Launch site: PLESETSK MISSILE AND SPACE COMPLEX (PKMTR)

Store-dump communications for Russian government and military.
aabbcc
Your satellite tracking list
Your tracking list is empty




NASA's NSSDC Master Catalog

Two Line Element Set (TLE):
1 28420U 04037B   18056.09861537 -.00000007  00000-0 -11751-3 0  9996
2 28420  82.4820  68.3444 0014962  86.9564 273.3230 12.45271355610182
Source of the keplerian elements: AFSPC